Location: Canazei
(46.4667°N, 11.7667°E)
Time: 17:07:46
(UTC+00:00)

N. Korean satellite - Visible Passes

Search period start: 26 September 2021 00:00
Search period end: 06 October 2021 00:00
Orbit: 449 x 498 km, 97.3° (Epoch: 25 September)

Date Brightness Start Highest point End Pass type
(mag) Time Alt. Az. Time Alt. Az. Time Alt. Az.
27 Sep 8.1 04:10:02 10° NNE 04:13:25 39° E 04:16:49 10° S visible
28 Sep 9.6 03:42:49 10° NE 03:45:27 19° E 03:48:05 10° SE visible
30 Sep 7.5 04:19:39 10° NNE 04:23:11 53° E 04:26:43 10° S visible
01 Oct 9.1 03:52:13 10° NE 03:55:13 24° E 03:58:15 10° SSE visible
02 Oct 10.0 03:25:38 10° ENE 03:27:09 12° E 03:28:40 10° ESE visible
03 Oct 6.9 04:29:13 10° NNE 04:32:50 71° ESE 04:36:28 10° S visible
04 Oct 8.6 04:01:36 10° NNE 04:04:53 32° E 04:08:10 10° SSE visible
05 Oct 9.8 03:34:31 10° NE 03:36:48 16° E 03:39:05 10° SE visible
